Location: Aghaballou
(31.1209°N, 8.8942°W)
Time: 03:55:31
(UTC+00:00)

Daily predictions for brighter satellites

Satellite Brightness Start Highest point End
(mag) Time Altitude Azimuth Time Altitude Azimuth Time Altitude Azimuth
Cosmos 2082 Rocket 4.4 03:27:07 21° ENE 03:27:07 21° ENE 03:29:36 10° NE
Hubble Space Telescope 4.0 03:55:03 11° E 03:55:03 11° E 03:55:16 10° E
USA 234 4.2 03:46:06 10° NE 03:50:07 39° NNE 03:50:07 39° NNE
ATLAS 5 CENTAUR R/B 3.6 03:54:03 35° NNE 03:55:27 39° ENE 04:01:49 10° SE
H-2A ROCKET BODY 3.4 03:57:10 75° SW 03:57:49 78° S 04:03:05 10° E
Lacrosse 5 rocket 4.1 04:01:19 17° ENE 04:01:19 17° ENE 04:02:42 10° ENE
ALOS 4.3 04:06:48 10° NNE 04:08:33 22° NNE 04:08:33 22° NNE
Cosmos 1980 Rocket 4.4 04:11:48 10° N 04:16:16 23° ENE 04:20:43 10° ESE
Cosmos 2184 Rocket 4.4 04:12:39 10° N 04:20:31 52° SSE 04:25:05 10° S
COSMOS 2455 4.1 04:20:18 12° S 04:25:22 38° ESE 04:30:52 10° NE
FENGYUN 3A 4.0 04:27:54 10° N 04:32:05 54° N 04:32:05 54° N
Cosmos 1697 Rocket 2.8 04:32:35 30° N 04:35:26 72° ENE 04:41:01 10° SSE
GEOS 3 Rocket 3.5 04:33:25 10° NNE 04:38:33 82° ESE 04:39:12 68° S
Cosmos 2154 Rocket 3.9 04:36:14 10° N 04:42:27 90° ENE 04:48:38 10° S
ATLAS 3B R/B 4.0 04:47:33 26° SSW 04:47:33 26° SSW 04:51:16 10° S
Cosmos 1340 3.3 04:49:23 36° SSE 04:50:35 55° E 04:54:16 10° NNE
Cosmos 1295 Rocket 4.4 04:45:13 10° N 04:51:28 87° W 04:57:36 10° S
Meteor 2-10 4.4 04:51:42 10° N 04:56:43 62° E 05:01:48 10° SSE
PSLV R/B 3.4 04:55:03 10° N 04:59:25 77° WNW 05:01:05 37° SSW
Cosmos 1842 3.7 05:03:51 46° NNW 05:03:51 46° NNW 05:06:47 10° N
Cosmos 2181 Rocket 4.4 04:57:09 10° S 05:03:09 64° E 05:09:15 10° NNE
Meteor 1-15 Rocket 4.3 05:02:41 10° NNW 05:08:31 62° W 05:14:19 10° S
Cosmos 2082 Rocket 3.0 05:09:02 31° WNW 05:09:02 31° WNW 05:13:46 10° N
ATLAS CENTAUR R/B 2.5 05:12:18 26° NNW 05:12:18 26° NNW 05:14:50 10° N
Cosmos 1707 2.8 05:14:11 10° S 05:18:03 76° E 05:21:56 10° N
Cosmos 2221 Rocket 3.7 05:15:31 15° SSW 05:18:55 48° W 05:23:12 10° N
GP-B 4.2 05:21:40 26° NW 05:21:40 26° NW 05:24:13 10° NNW
SAR-Lupe-3 4.4 05:19:46 10° NNE 05:23:21 90° E 05:26:54 10° SSW
Okean 2 3.2 05:20:19 10° S 05:24:22 77° W 05:28:27 10° N
Cosmos 962 Rocket 4.4 05:18:33 10° N 05:24:47 74° W 05:31:03 10° S
Cosmos 2150 Rocket 3.8 05:19:52 10° NNW 05:25:05 78° WSW 05:30:13 10° S
Okean 2 Rocket 3.0 05:23:38 10° N 05:28:09 73° W 05:32:38 10° S
Hubble Space Telescope 1.4 05:30:21 26° WSW 05:32:11 44° SSW 05:36:08 10° ESE
Cosmos 1378 Rocket 3.5 05:30:05 10° SSW 05:34:24 66° W 05:38:47 10° N
Cosmos 405 2.8 05:32:34 10° NNW 05:35:58 63° W 05:39:22 10° S
CZ-2C R/B 4.2 05:31:48 10° SE 05:36:44 39° ENE 05:41:47 10° N
Lacrosse 5 rocket 2.5 05:36:58 22° WNW 05:38:11 26° NW 05:41:49 10° NNE
YAOGAN 6 2.5 05:35:38 10° N 05:39:08 89° E 05:42:41 10° SSW
ATLAS 5 CENTAUR R/B 3.2 05:35:40 15° WNW 05:40:07 33° WSW 05:46:17 10° S
SJ-12 3.8 05:36:24 10° N 05:40:27 78° WNW 05:44:29 10° SSW
Cosmos 2218 Rocket 4.1 05:35:47 10° N 05:42:13 86° E 05:48:35 10° S
OAO 2 Rocket 3.2 05:40:45 18° WSW 05:44:30 87° NNW 05:49:27 10° ENE
Cosmos 1470 2.7 05:40:47 10° NNW 05:44:38 62° W 05:48:27 10° S
Cosmos 2369 4.1 05:39:30 10° NW 05:44:47 40° WSW 05:50:04 10° S
ALOS 4.3 05:46:38 10° NW 05:47:02 11° NW 05:47:02 11° NW
Cosmos 1758 3.6 05:44:20 10° N 05:48:18 72° E 05:52:15 10° SSE
SL-8 Rocket 3.9 05:42:58 10° NNW 05:49:08 68° W 05:55:14 10° S
Cosmos 1484 Rocket 4.4 05:47:02 10° NW 05:48:51 15° WNW 05:48:51 15° WNW
Cosmos 1726 2.6 05:46:06 10° NNW 05:49:28 35° W 05:52:51 10° SSW
DELTA 2 R/B (1) 3.7 05:44:46 14° WNW 05:49:38 77° NNE 05:55:11 10° ESE
H-2A R/B 2.9 05:53:22 10° N 05:57:03 49° WNW 06:00:40 10° SSW
USA 229 DEB 4.5 05:50:00 10° NNW 05:57:30 64° ENE 06:05:19 10° SE
CZ-4C R/B 3.9 05:55:20 10° SSE 05:58:46 54° ENE 06:02:16 10° N
Cosmos 1953 4.3 05:55:49 10° NNE 05:59:29 33° E 06:03:07 10° SE
Cosmos 1980 Rocket 2.7 05:55:05 10° NW 06:00:19 38° WSW 06:05:31 10° S
FALCON 9 DEB 3.8 05:58:23 10° NNW 06:01:16 44° NE 06:04:07 10° ESE
Cosmos 2341 Rocket 4.5 05:58:59 10° NNW 06:04:42 37° W 06:10:21 10° SSW
Envisat 3.1 06:01:17 10° N 06:06:12 52° WNW 06:11:06 10° SSW
Cosmos 2151 Rocket 4.4 06:03:26 10° NNW 06:07:14 29° W 06:11:02 10° SSW
SKYMED 2 3.5 06:04:04 10° S 06:08:24 76° W 06:12:44 10° NNW
Okean 1 Rocket 3.1 06:04:34 10° NNW 06:08:58 66° W 06:13:21 10° S
FALCON 9 DEB 4.4 06:06:27 10° NNW 06:09:38 37° NE 06:12:47 10° ESE
Cosmos 1346 Rocket 2.8 06:05:59 10° SSW 06:09:55 64° W 06:13:54 10° N
Landsat 5 3.2 06:06:32 10° S 06:10:19 70° WSW 06:14:12 10° NNW
COSMOS 2455 3.8 06:06:18 10° WSW 06:11:19 27° WNW 06:16:21 10° N
BREEZE-M DEB (TANK) 3.5 06:11:02 10° WSW 06:13:57 65° NNW 06:24:01 10° NE
NOSS 3-1 (A) 4.4 06:11:43 10° NNW 06:19:51 88° WSW 06:28:58 10° SSE
